Stations météo

réclame
Mon MeteoGroup
Lüdenscheid, Allemagne (10418): Température de l'air & dewpoint: 17.10.2018 01:00:00 - 23.10.2018 01:00:00 (CEST)Lüdenscheid, Allemagne (10418): Température de l'air 5cm & Température de l'air -5cm: 17.10.2018 01:00:00 - 23.10.2018 01:00:00 (CEST)Lüdenscheid, Allemagne (10418): Température de l'air -20cm & Température de l'air -100cm: 17.10.2018 01:00:00 - 23.10.2018 01:00:00 (CEST)Lüdenscheid, Allemagne (10418): Vitesse du vent & gusts: 17.10.2018 01:00:00 - 23.10.2018 01:00:00 (CEST)Lüdenscheid, Allemagne (10418): Direction du vent: 17.10.2018 01:00:00 - 23.10.2018 01:00:00 (CEST)Lüdenscheid, Allemagne (10418): reduced air pressure: 17.10.2018 01:00:00 - 23.10.2018 01:00:00 (CEST)Lüdenscheid, Allemagne (10418): visibility: 17.10.2018 01:00:00 - 23.10.2018 01:00:00 (CEST)Lüdenscheid, Allemagne (10418): Ensoleillement: 17.10.2018 01:00:00 - 23.10.2018 01:00:00 (CEST)Lüdenscheid, Allemagne (10418): Quantités de précipitations: 17.10.2018 01:00:00 - 23.10.2018 01:00:00 (CEST)
Date & Time tt [°C] td [°C] tt 5cm [°C] tt -5cm [°C] tt -20cm [°C] tt -100cm [°C] ff [km/h] ff [knt] fx [km/h] fx [knt] dd ppp [hPa] vv [km] sd [min] rr [mm]
23.10.2018 01:00:00 2,7 2,4 1,4 6,7 10,8 14,1 8 4 10 5 W 1033,9 20 0 0,0
23.10.2018 00:00:00 2,7 2,3 1,5 7,1 11,0 14,1 8 5 10 5 W 1033,9 11 0 0,0
22.10.2018 23:00:00 3,7 2,9 0,9 7,6 11,2 14,1 8 4 9 5 WNW 1033,9 23 0 0,0
22.10.2018 22:00:00 4,7 3,6 1,7 8,1 11,4 14,1 7 4 9 5 W 1033,9 32 0 0,0
22.10.2018 21:00:00 5,2 3,9 3,2 8,8 11,6 14,1 5 3 11 6 W 1034,0 32 0 0,0
22.10.2018 20:00:00 5,5 4,1 3,2 9,6 11,6 14,1 5 3 9 5 W 1033,4 34 0 0,0
22.10.2018 19:00:00 7,5 4,5 4,6 10,7 11,6 14,1 4 2 10 5 N 1032,8 40 0 0,0
22.10.2018 18:00:00 9,6 6,5 8,1 11,7 11,5 14,1 6 4 12 7 NNE 1032,4 37 0 0,0
22.10.2018 17:00:00 10,2 8,1 9,9 12,2 11,4 14,1 3 1 9 5 NW 1031,6 33 9 0,0
22.10.2018 16:00:00 10,7 8,5 12,7 12,0 11,3 14,1 4 2 10 6 ENE 1031,4 31 19 0,0
22.10.2018 15:00:00 9,4 7,9 10,0 11,4 11,1 14,2 6 3 21 11 NNE 1031,8 32 0 0,0
22.10.2018 14:00:00 8,9 8,0 10,1 10,9 11,1 14,2 9 5 28 15 ENE 1031,7 20 0 0,4
22.10.2018 13:00:00 9,1 8,5 10,2 10,4 11,0 14,2 10 5 27 15 NE 1031,4 3,4 0 0,1
22.10.2018 12:00:00 8,6 8,2 8,9 10,0 11,0 14,2 10 6 29 15 NNE 1031,1 3,0 0 0,4
22.10.2018 11:00:00 8,4 7,9 8,8 9,6 11,0 14,2 4 2 19 11 N 1030,5 1,6 0 0,2
22.10.2018 10:00:00 7,3 5,4 8,0 9,4 11,0 14,2 3 2 7 4 WSW 1029,8 29 0 0,0
22.10.2018 09:00:00 8,4 5,2 8,3 9,0 11,1 14,2 5 3 7 4 WNW 1029,0 37 0 0,0
22.10.2018 08:00:00 6,8 5,1 6,9 8,8 11,1 14,2 5 3 6 4 W 1028,6 35 0 0,0
22.10.2018 07:00:00 6,2 4,5 6,1 8,7 11,2 14,2 4 2 8 5 SW 1028,1 33 0 0,0
22.10.2018 06:00:00 5,7 4,2 5,7 8,5 11,3 14,2 0 0 4 2 N 1028,0 32 0 0,0
22.10.2018 05:00:00 5,4 4,0 4,6 8,3 11,5 14,2 0 0 5 3 N 1028,0 32 0 0,0
22.10.2018 04:00:00 4,9 3,6 4,7 8,1 11,7 14,2 0 0 4 2 N 1028,4 35 0 0,0
22.10.2018 03:00:00 4,6 3,4 2,2 8,2 11,9 14,2 3 2 5 3 E 1028,6 28 0 0,0
22.10.2018 02:00:00 4,9 3,7 1,9 8,6 12,1 14,2 0 0 4 2 N 1028,5 34 0 0,0
22.10.2018 01:00:00 6,0 4,7 2,3 9,0 12,3 14,3 3 2 4 2 ESE 1028,2 41 0 0,0
22.10.2018 00:00:00 6,2 4,7 2,5 9,5 12,5 14,3 3 1 4 2 E 1028,2 37 0 0,0
21.10.2018 23:00:00 6,7 4,7 3,5 10,0 12,6 14,3 4 2 5 3 E 1027,7 36 0 0,0
21.10.2018 22:00:00 7,8 4,9 4,3 10,6 12,8 14,3 0 0 4 2 N 1027,6 40 0 0,0
21.10.2018 21:00:00 8,3 4,8 5,9 11,4 12,9 14,3 3 2 5 3 WNW 1027,7 44 0 0,0
21.10.2018 20:00:00 10,5 5,3 6,3 12,2 13,0 14,3 0 0 5 3 N 1027,4 46 0 0,0
21.10.2018 19:00:00 11,3 5,2 8,3 13,3 12,9 14,3 5 3 9 5 W 1027,0 51 0 0,0
21.10.2018 18:00:00 13,2 5,0 10,9 14,5 12,7 14,3 7 4 10 5 W 1026,5 52 55 0,0
21.10.2018 17:00:00 14,5 5,0 15,4 15,6 12,4 14,3 5 3 14 7 SSE 1026,6 51 60 0,0
21.10.2018 16:00:00 14,8 4,5 18,5 15,9 12,0 14,3 5 3 13 7 S 1027,2 47 60 0,0
21.10.2018 15:00:00 14,9 4,4 19,8 15,6 11,6 14,3 5 3 17 9 WNW 1027,5 60 60 0,0
21.10.2018 14:00:00 14,3 4,3 19,5 14,8 11,2 14,3 11 6 17 9 WSW 1028,4 56 60 0,0
21.10.2018 13:00:00 13,7 4,7 18,7 13,2 10,9 14,3 10 5 19 10 SW 1029,0 60 60 0,0
21.10.2018 12:00:00 12,3 4,9 16,6 11,4 10,8 14,3 11 6 17 9 SE 1029,6 75 60 0,0
21.10.2018 11:00:00 9,1 5,3 12,9 9,3 10,8 14,3 5 3 8 4 E 1030,5 28 60 0,0
21.10.2018 10:00:00 6,4 4,2 8,4 7,3 11,0 14,3 3 2 7 4 ENE 1030,8 18 60 0,0
21.10.2018 09:00:00 2,4 2,0 2,2 6,6 11,2 14,3 6 3 6 4 E 1031,5 3,5 13 0,0
21.10.2018 08:00:00 2,1 1,9 -0,6 6,7 11,3 14,3 3 2 4 2 E 1030,9 3,8 0 0,0
21.10.2018 07:00:00 1,8 1,8 -0,5 7,0 11,6 14,3 2 1 5 3 ESE 1031,0 1,4 0 0,0
21.10.2018 06:00:00 3,6 3,4 0,5 7,3 11,8 14,3 4 2 5 3 ENE 1031,0 8 0 0,0
21.10.2018 05:00:00 3,2 2,8 -0,1 7,6 12,0 14,3 4 2 5 3 E 1031,5 5 0 0,0
21.10.2018 04:00:00 3,0 2,4 1,2 8,0 12,2 14,4 0 0 5 3 N 1031,8 5 0 0,0
21.10.2018 03:00:00 3,4 3,1 1,1 8,3 12,4 14,4 3 2 6 4 E 1031,7 5 0 0,0
21.10.2018 02:00:00 4,2 3,2 1,5 8,8 12,6 14,4 4 2 7 4 E 1031,6 12 0 0,0
21.10.2018 01:00:00 4,0 2,9 2,5 9,1 12,8 14,4 5 3 5 3 WNW 1032,0 13 0 0,0
21.10.2018 00:00:00 4,2 2,8 2,7 9,5 13,1 14,4 3 1 4 2 NW 1032,0 15 0 0,0
20.10.2018 23:00:00 5,3 3,5 3,2 10,0 13,3 14,4 3 1 5 3 WNW 1032,2 22 0 0,0
20.10.2018 22:00:00 5,5 3,7 2,5 10,7 13,5 14,4 0 0 8 5 N 1032,1 23 0 0,0
20.10.2018 21:00:00 6,5 3,9 3,0 11,5 13,7 14,4 0 0 6 3 N 1031,4 14 0 0,0
20.10.2018 20:00:00 8,2 4,3 4,7 12,4 13,7 14,4 3 1 9 5 E 1031,4 31 0 0,0
20.10.2018 19:00:00 9,2 4,4 6,9 13,4 13,7 14,4 5 3 11 6 NNE 1031,3 36 0 0,0
20.10.2018 18:00:00 10,4 4,3 9,5 14,6 13,6 14,4 5 3 16 9 NNE 1030,8 33 16 0,0
20.10.2018 17:00:00 11,8 4,6 12,9 15,5 13,4 14,4 7 4 12 7 N 1030,3 34 21 0,0
20.10.2018 16:00:00 12,4 4,3 15,9 15,9 13,1 14,4 7 4 17 9 NE 1030,2 35 54 0,0
20.10.2018 15:00:00 12,8 4,3 18,1 15,9 12,8 14,4 7 4 16 9 E 1030,3 42 60 0,0
20.10.2018 14:00:00 12,7 4,3 19,0 15,3 12,5 14,4 10 5 16 8 E 1030,5 45 60 0,0
20.10.2018 13:00:00 11,0 4,7 16,3 14,0 12,4 14,4 9 5 16 9 E 1031,2 31 60 0,0
20.10.2018 12:00:00 9,8 5,3 13,8 12,4 12,3 14,4 11 6 18 10 E 1031,2 19 60 0,0
20.10.2018 11:00:00 7,9 6,4 10,7 11,1 12,3 14,4 6 3 9 5 E 1031,4 12 59 0,0
20.10.2018 10:00:00 6,5 6,5 8,7 9,6 12,4 14,4 4 2 6 3 ENE 1031,0 1,4 21 0,0
20.10.2018 09:00:00 3,2 3,2 3,2 9,0 12,6 14,4 3 2 4 2 ENE 1031,1 0,1 0 0,0
20.10.2018 08:00:00 3,2 3,1 2,7 9,2 12,8 14,4 1 1 4 2 NNE 1030,4 0,1 0 0,0
20.10.2018 07:00:00 4,6 4,6 4,0 9,3 12,9 14,4 3 2 5 3 E 1029,6 0,1 0 0,0
20.10.2018 06:00:00 5,1 5,1 4,8 9,2 13,2 14,4 5 3 6 3 E 1028,7 0,1 0 0,0
20.10.2018 05:00:00 6,4 6,4 3,0 9,5 13,4 14,4 2 1 6 4 E 1028,5 3,0 0 0,0
20.10.2018 04:00:00 5,7 5,5 2,0 9,9 13,6 14,4 3 1 6 4 W 1028,3 0,7 0 0,0
20.10.2018 03:00:00 5,7 5,4 4,1 10,4 13,8 14,4 4 2 6 3 WNW 1027,9 2,1 0 0,0
20.10.2018 02:00:00 7,0 6,8 3,8 11,1 14,0 14,4 0 0 4 2 N 1027,6 5 0 0,0
20.10.2018 01:00:00 7,1 6,7 5,7 11,3 14,2 14,4 4 2 6 3 W 1027,2 6 0 0,0
20.10.2018 00:00:00 8,1 7,3 5,0 12,0 14,4 14,4 1 1 5 3 SSE 1026,7 9 0 0,0
19.10.2018 23:00:00 9,0 7,9 6,0 12,9 14,5 14,4 3 1 11 6 E 1026,3 11 0 0,0
19.10.2018 22:00:00 10,7 8,2 9,5 13,3 14,6 14,4 5 3 9 5 NNE 1026,0 16 0 0,0
19.10.2018 21:00:00 10,7 8,2 7,7 14,1 14,7 14,4 3 1 10 5 ESE 1025,3 14 0 0,0
19.10.2018 20:00:00 11,7 8,9 11,3 14,5 14,7 14,4 6 3 12 6 NE 1024,8 15 0 0,0
19.10.2018 19:00:00 11,9 8,8 11,9 15,0 14,7 14,4 5 3 13 7 N 1024,4 15 0 0,0
19.10.2018 18:00:00 12,6 9,1 13,1 15,7 14,6 14,4 8 4 13 7 N 1023,6 15 0 0,0
19.10.2018 17:00:00 13,1 8,9 14,2 16,0 14,5 14,4 7 4 13 7 N 1023,5 18 0 0,0
19.10.2018 16:00:00 13,9 7,3 15,5 16,4 14,3 14,4 5 3 12 6 E 1023,6 34 0 0,0
19.10.2018 15:00:00 13,9 6,5 17,1 16,5 14,1 14,4 9 5 19 10 S 1023,8 38 34 0,0
19.10.2018 14:00:00 13,1 6,8 14,8 15,8 14,0 14,4 10 6 17 9 ESE 1024,1 35 18 0,0
19.10.2018 13:00:00 12,6 8,7 16,9 15,1 13,9 14,4 6 3 11 6 ENE 1024,6 14 31 0,0
19.10.2018 12:00:00 11,1 8,7 14,2 13,8 13,9 14,4 7 4 12 6 E 1025,3 11 0 0,0
19.10.2018 11:00:00 10,1 8,6 11,6 13,1 13,9 14,4 5 3 12 7 E 1025,5 8 0 0,0
19.10.2018 10:00:00 9,6 8,6 11,1 12,6 14,0 14,4 6 3 13 7 ENE 1025,2 6 0 0,0
19.10.2018 09:00:00 9,3 8,6 9,8 12,4 14,0 14,4 6 3 13 7 ENE 1025,0 5 0 0,0
19.10.2018 08:00:00 9,2 8,5 9,4 12,5 14,1 14,4 5 3 11 6 ENE 1024,6 7 0 0,0
19.10.2018 07:00:00 9,3 8,8 9,4 12,6 14,2 14,4 7 4 14 7 ENE 1024,5 6 0 0,0
19.10.2018 06:00:00 9,8 8,9 9,7 12,9 14,3 14,4 6 3 15 8 ENE 1024,3 8 0 0,0
19.10.2018 05:00:00 10,1 9,4 10,1 13,1 14,4 14,4 6 3 12 6 ENE 1024,4 7 0 0,0
19.10.2018 04:00:00 10,2 9,6 10,3 13,2 14,4 14,4 6 4 12 6 ENE 1024,2 4,4 0 0,0
19.10.2018 03:00:00 10,3 9,7 10,6 13,3 14,5 14,4 5 3 13 7 NNE 1024,2 5 0 0,0
19.10.2018 02:00:00 10,4 10,0 10,7 13,4 14,6 14,4 8 4 16 8 ENE 1024,5 4,0 0 0,0
19.10.2018 01:00:00 10,6 10,0 10,8 13,6 14,7 14,4 9 5 17 9 ENE 1024,7 7 0 0,0
19.10.2018 00:00:00 10,7 9,9 10,9 13,7 14,8 14,4 10 5 19 10 ENE 1024,8 9 0 0,0
18.10.2018 23:00:00 10,6 10,2 10,9 13,9 14,9 14,4 8 4 21 11 NE 1025,1 6 0 0,0
18.10.2018 22:00:00 11,0 10,3 11,2 14,1 14,9 14,4 9 5 24 13 ENE 1024,8 9 0 0,0
18.10.2018 21:00:00 12,1 10,0 12,0 14,4 15,0 14,4 6 3 16 8 NE 1024,1 31 0 0,0
18.10.2018 20:00:00 12,4 10,4 12,3 14,6 15,0 14,4 6 3 13 7 ENE 1023,9 26 0 0,0
18.10.2018 19:00:00 12,5 10,2 12,0 15,1 15,0 14,4 6 4 14 8 NE 1023,5 34 0 0,0
18.10.2018 18:00:00 13,1 8,5 11,9 15,8 15,0 14,4 4 2 16 9 NE 1023,3 34 5 0,0
18.10.2018 17:00:00 14,1 8,3 15,3 16,5 14,8 14,4 10 6 19 11 ENE 1023,0 36 28 0,0
18.10.2018 16:00:00 14,3 8,5 16,3 16,4 14,7 14,4 6 4 18 10 NE 1023,3 34 16 0,0
18.10.2018 15:00:00 13,9 9,4 15,8 16,0 14,6 14,4 6 4 15 8 ENE 1023,2 18 1 0,0
18.10.2018 14:00:00 13,7 9,8 15,2 15,9 14,5 14,4 7 4 16 9 N 1023,4 15 6 0,0
18.10.2018 13:00:00 13,5 10,0 15,8 15,1 14,4 14,4 6 4 16 9 NE 1023,4 13 3 0,0
18.10.2018 12:00:00 12,2 10,5 13,2 14,3 14,4 14,4 6 4 16 9 NE 1023,6 6 0 0,0
18.10.2018 11:00:00 12,2 10,2 13,4 14,2 14,4 14,4 8 4 16 9 N 1023,4 8 18 0,0
18.10.2018 10:00:00 12,8 10,7 13,7 13,4 14,4 14,4 6 4 11 6 ENE 1022,5 7 17 0,0
18.10.2018 09:00:00 11,5 10,9 11,6 13,1 14,5 14,4 5 3 9 5 ENE 1022,8 3,6 0 0,0
18.10.2018 08:00:00 11,6 10,7 11,3 13,2 14,6 14,4 6 3 10 5 ENE 1022,3 3,8 0 0,0
18.10.2018 07:00:00 11,5 10,9 11,3 13,1 14,6 14,4 7 4 18 10 E 1022,1 2,7 0 0,0
18.10.2018 06:00:00 11,4 11,4 11,4 13,0 14,8 14,4 8 5 16 8 E 1022,0 1,3 0 0,0
18.10.2018 05:00:00 11,4 11,4 11,4 12,7 14,9 14,4 5 3 16 9 ENE 1021,7 0,1 0 0,0
18.10.2018 04:00:00 9,6 9,4 7,9 12,6 15,1 14,4 4 2 7 4 E 1021,6 1,3 0 0,0
18.10.2018 03:00:00 11,1 10,4 7,9 13,0 15,3 14,3 0 0 4 2 N 1021,0 3,0 0 0,0
18.10.2018 02:00:00 12,3 11,0 9,4 13,5 15,5 14,3 0 0 3 2 ENE 1020,9 4,5 0 0,0
18.10.2018 01:00:00 12,8 10,8 9,7 13,9 15,7 14,3 2 1 4 2 E 1021,0 9 0 0,0
18.10.2018 00:00:00 13,2 10,7 10,1 14,4 15,9 14,3 3 2 6 3 E 1021,0 10 0 0,0
17.10.2018 23:00:00 14,2 10,9 11,0 14,9 16,0 14,3 3 2 10 5 ENE 1020,6 13 0 0,0
17.10.2018 22:00:00 15,1 10,9 12,2 15,4 16,2 14,3 5 3 11 6 NE 1020,3 15 0 0,0
17.10.2018 21:00:00 15,9 11,0 12,4 16,2 16,3 14,3 3 2 10 5 N 1019,8 20 0 0,0
17.10.2018 20:00:00 17,0 10,9 14,1 17,0 16,3 14,3 5 3 11 6 NNE 1019,1 25 0 0,0
17.10.2018 19:00:00 18,3 10,6 15,8 18,2 16,2 14,3 3 2 11 6 WSW 1018,4 36 0 0,0
17.10.2018 18:00:00 20,5 9,5 19,6 19,2 16,0 14,3 4 2 11 6 NNE 1017,7 41 49 0,0
17.10.2018 17:00:00 20,8 9,3 21,3 19,8 15,7 14,3 6 3 12 6 NNE 1017,4 55 12 0,0
17.10.2018 16:00:00 21,8 8,6 24,2 20,2 15,3 14,3 4 2 15 8 NNE 1017,5 52 41 0,0
17.10.2018 15:00:00 21,5 8,7 23,5 20,3 14,9 14,3 4 2 13 7 SE 1017,7 46 50 0,0
17.10.2018 14:00:00 21,9 8,5 27,2 19,4 14,5 14,3 7 4 10 6 SW 1018,0 71 60 0,0
17.10.2018 13:00:00 21,0 8,7 25,7 17,5 14,2 14,3 5 3 10 6 WSW 1018,6 60 60 0,0
17.10.2018 12:00:00 19,4 9,6 22,5 15,5 14,1 14,3 6 3 9 5 W 1018,9 39 57 0,0
17.10.2018 11:00:00 15,9 10,6 18,1 13,9 14,1 14,3 0 0 6 4 N 1019,4 43 60 0,0
17.10.2018 10:00:00 13,1 9,9 14,2 12,4 14,2 14,3 2 1 5 3 SE 1019,9 26 60 0,0
17.10.2018 09:00:00 10,1 8,4 9,4 11,5 14,4 14,3 4 2 5 3 E 1020,2 22 13 0,0
17.10.2018 08:00:00 10,4 8,7 7,2 11,5 14,6 14,3 4 2 5 3 E 1019,9 31 0 0,0
17.10.2018 07:00:00 9,4 7,8 6,9 11,8 14,8 14,3 0 0 6 4 N 1020,1 24 0 0,0
17.10.2018 06:00:00 9,7 8,6 6,7 12,1 15,0 14,3 3 2 5 3 ENE 1019,9 22 0 0,0
17.10.2018 05:00:00 10,7 9,0 7,0 12,5 15,2 14,3 5 3 5 3 E 1019,5 27 0 0,0
17.10.2018 04:00:00 11,0 9,2 7,7 12,9 15,4 14,3 4 2 6 3 E 1019,9 25 0 0,0
17.10.2018 03:00:00 11,7 9,3 8,5 13,3 15,6 14,3 3 1 9 5 E 1020,0 29 0 0,0
17.10.2018 02:00:00 12,3 9,3 8,7 13,7 15,8 14,3 1 1 6 3 ESE 1020,1 32 0 0,0
17.10.2018 01:00:00 12,6 8,7 9,7 14,2 16,0 14,3 0 0 4 2 N 1020,3 29 0 0,0

tt = Température de l'air
td = dewpoint
tt 5cm = Température de l'air 5cm
tt -5cm = Température de l'air -5cm
tt -20cm = Température de l'air -20cm
tt -100cm = Température de l'air -100cm
ff = Vitesse du vent
fx = gusts
dd = Direction du vent
ppp = reduced air pressure
vv = visibility
sd = Ensoleillement
rr = Quantités de précipitations

stations d'obs. à proximité